Agana Heights, GU

2:10 PM ChST on September 03, 2014 (GMT +1000)
Maite | Change Station
CLOSE
Current Station
Personal Weather Station
Location: Maite, GU
Elevation: 140 ft
Nearby Weather Stations

Elev 140 ft 13.48 °N, 144.76 °E | Updated 20 seconds ago

Partly Cloudy
Partly Cloudy
84.9 °F
Feels Like 99 °F
N
2.0
Wind Variable Wind from South
Gusts 6.0 mph

Today
High -- | Low -- °F
--% Chance of Precip.
Yesterday
High -- | Low -- °F
Precip. -- in
6:09 AM 6:31 PM
First Quarter, 58% visible
Pressure 29.77 in
Visibility 10.0 miles
Clouds Few 6500 ft
Heat Index 99 °F
Dew Point 80 °F
Humidity 85%
Rainfall 0.23 in
Snow Depth Not available.
UV 3.4 out of 12
Pollen Not available.
Air Quality Not available.
Flu Activity Not available.
METAR PGUM 030354Z 16008KT 10SM FEW065 29/25 A2979 RMK AO2 TSB14E36 SLP081 CB DSNT W-NW-N MOV N T02940250

More Conditions Fewer Conditions

Pressure 29.77 in
Visibility 10.0 miles
Clouds Few 6500 ft
Heat Index 99 °F
Dew Point 80 °F
Humidity 85%
Rainfall 0.23 in
Snow Depth Not available.
UV 3.4 out of 12
Pollen Not available.
Air Quality Not available.
Flu Activity Not available.
METAR PGUM 030354Z 16008KT 10SM FEW065 29/25 A2979 RMK AO2 TSB14E36 SLP081 CB DSNT W-NW-N MOV N T02940250

More Conditions Fewer Conditions

10-Day Weather Forecast

Almanac

Astronomy

Sep. 03, 2014 Rise Set
Actual Time 6:09 AM ChST 6:31 PM ChST
Civil Twilight 5:48 AM ChST 6:52 PM ChST
Nautical Twilight 5:23 AM ChST 7:17 PM ChST
Astronomical Twilight 4:57 AM ChST 7:42 PM ChST
Moon 1:05 PM ChST No Moon Set
Length of Visible Light 13h 04m
Length of Day
12h 21m
Tomorrow will be 0m 43s shorter.
First Quarter, 58% of the Moon is Illuminated
Today
First Quarter
Sep 8
Full
Sep 15
Last Quarter
Sep 24
New
Oct 1
First Quarter

Community

WunderPhotos

Upload Photos

1,749,868 photos uploaded!

Nearby

Snow Depth

Station Depth Elevation
No new snow has been reported.

Earthquake Activity

City Distance Mag. Time & Date
No recent earthquake activity has been reported nearby.
Minimum magnitude displayed is 2.5.

Coastal Water Temperatures

Place Temperature
No Stations Reporting

Nearby Weather Stations